Tianmu 1-15

operational
NORAD ID: 58700 Int'l Des: 2024-004 Owner: TIANMU Country: CN
LEOCIRCULARRETROGRADESSO

关于 Tianmu 1-15

正在加载描述...

实时位置

正在加载3D地球...

即将过境

高度历史

Altitude vs Time

uPlot chart will show altitude changes over time

两行轨道根数

1 58700U 24004A 25277.84546422 .00010825 00000-0 45774-3 0 9994
2 58700 97.4665 99.6111 0006800 161.8492 198.2988 15.23374771 96854
Epoch: Oct 4, 2025 • Age: 10 hours

当前状态

高度 504.1 km
速度 7.62 km/s
星下点 66.61°N, 170.24°W
发射日期 Jan 5, 2024
运行时间 1.7 years
类型 other

技术详情

分类 Payload
质量 50.00 kg
干质量 50.00 kg
总质量 50.00 kg
长度 1.50 m
直径 1.00 m
跨度 1.50 m
形状 Box
制造商 TIANMU
平台类型 Tianmu
阶段状态 In Orbit
所有者/国家 TIANMU/CN

大型星座

Loading constellations...